| time (UTC) | temp F | wind direction | speed knots | gust knots | rain 1hr in | rain 24hr in | rain mn in | humidity % | barometer mb |
| 20260505075144 | 53 | 297 | 0.0 | 1.7 | 0.00 | 0.00 | 0.00 | 94 | 1013.2 |
| 20260505074636 | 53 | 0 | 0.0 | 0.0 | 0.00 | 0.00 | 0.00 | 94 | 1013.1 |
| 20260505074352 | 53 | 0 | 0.0 | 0.0 | 0.00 | 0.00 | 0.00 | 94 | 1013.2 |
| 20260505073623 | 53 | 238 | 0.0 | 0.0 | 0.00 | 0.00 | 0.00 | 94 | 1013.3 |
| 20260505073339 | 53 | 238 | 0.0 | 0.0 | 0.00 | 0.00 | 0.00 | 93 | 1013.3 |
| 20260505072843 | 53 | 238 | 0.0 | 0.0 | 0.00 | 0.00 | 0.00 | 93 | 1013.4 |
| 20260505072106 | 53 | 238 | 0.0 | 0.0 | 0.00 | 0.00 | 0.00 | 93 | 1013.4 |
| 20260505071558 | 53 | 238 | 0.0 | 0.0 | 0.00 | 0.00 | 0.00 | 93 | 1013.4 |
| 20260505071052 | 53 | 238 | 0.0 | 0.0 | 0.00 | 0.00 | 0.00 | 93 | 1013.4 |
| 20260505070553 | 53 | 238 | 0.0 | 0.0 | 0.00 | 0.00 | 0.00 | 93 | 1013.4 |
| 20260505070049 | 53 | 238 | 0.0 | 0.0 | 0.00 | 0.00 | 0.00 | 92 | 1013.4 |
| 20260505065546 | 53 | 238 | 0.0 | 0.0 | 0.00 | 0.00 | 0.01 | 92 | 1013.4 |
| 20260505065307 | 53 | 238 | 0.0 | 0.0 | 0.00 | 0.00 | 0.01 | 92 | 1013.4 |
| 20260505064547 | 53 | 238 | 0.0 | 0.9 | 0.00 | 0.00 | 0.01 | 92 | 1013.7 |
| 20260505064045 | 53 | 238 | 0.0 | 0.9 | 0.00 | 0.00 | 0.01 | 92 | 1013.7 |
| 20260505063546 | 53 | 238 | 0.0 | 0.9 | 0.00 | 0.00 | 0.01 | 92 | 1013.6 |
| 20260505063047 | 53 | 239 | 0.0 | 0.9 | 0.00 | 0.00 | 0.01 | 92 | 1013.7 |
| 20260505062547 | 53 | 248 | 0.0 | 0.0 | 0.00 | 0.00 | 0.01 | 92 | 1013.7 |
| 20260505062048 | 53 | 248 | 0.0 | 3.5 | 0.00 | 0.00 | 0.01 | 92 | 1013.7 |
| 20260505061607 | 54 | 247 | 0.0 | 3.5 | 0.00 | 0.00 | 0.01 | 92 | 1013.7 |
| 20260505061042 | 54 | 255 | 0.0 | 3.5 | 0.00 | 0.00 | 0.01 | 92 | 1013.8 |
| 20260505060544 | 54 | 255 | 0.0 | 3.5 | 0.00 | 0.00 | 0.01 | 91 | 1013.8 |
| 20260505060301 | 54 | 227 | 0.0 | 2.6 | 0.00 | 0.00 | 0.01 | 91 | 1013.9 |
| 20260505060028 | 54 | 238 | 0.0 | 2.6 | 0.00 | 0.00 | 0.01 | 91 | 1013.9 |
| 20260505055043 | 54 | 261 | 0.0 | 0.0 | 0.00 | 0.00 | 0.01 | 91 | 1013.9 |
| 20260505054543 | 54 | 267 | 0.0 | 1.7 | 0.00 | 0.00 | 0.01 | 91 | 1013.9 |
| 20260505054041 | 54 | 267 | 0.0 | 1.7 | 0.00 | 0.00 | 0.01 | 91 | 1013.9 |
| 20260505053812 | 54 | 267 | 0.0 | 1.7 | 0.00 | 0.00 | 0.01 | 90 | 1013.9 |
| 20260505053039 | 54 | 238 | 0.0 | 1.7 | 0.00 | 0.00 | 0.01 | 90 | 1014.0 |
| 20260505052539 | 54 | 247 | 0.0 | 1.7 | 0.00 | 0.00 | 0.01 | 89 | 1014.1 |
| 20260505052038 | 54 | 242 | 0.0 | 5.2 | 0.00 | 0.00 | 0.01 | 88 | 1014.2 |
| 20260505051539 | 54 | 244 | 0.0 | 5.2 | 0.00 | 0.00 | 0.01 | 88 | 1014.1 |
| 20260505051300 | 55 | 221 | 0.9 | 6.1 | 0.00 | 0.00 | 0.01 | 87 | 1014.1 |
| 20260505050539 | 55 | 240 | 0.9 | 6.1 | 0.00 | 0.00 | 0.01 | 86 | 1014.0 |
| 20260505041535 | 55 | 246 | 0.9 | 8.7 | 0.00 | 0.00 | 0.01 | 84 | 1014.1 |
| 20260505041035 | 55 | 243 | 1.7 | 8.7 | 0.00 | 0.00 | 0.01 | 84 | 1014.0 |
| 20260505040535 | 56 | 244 | 0.9 | 5.2 | 0.00 | 0.00 | 0.01 | 85 | 1014.0 |
| 20260505040030 | 56 | 246 | 1.7 | 5.2 | 0.00 | 0.00 | 0.01 | 85 | 1014.0 |
| 20260505035531 | 56 | 257 | 1.7 | 6.1 | 0.00 | 0.00 | 0.01 | 85 | 1013.9 |
| 20260505035030 | 56 | 214 | 1.7 | 7.0 | 0.00 | 0.00 | 0.01 | 85 | 1013.9 |
| 20260505034530 | 56 | 223 | 1.7 | 7.0 | 0.00 | 0.00 | 0.01 | 84 | 1013.9 |
| 20260505034248 | 56 | 233 | 0.9 | 7.0 | 0.00 | 0.00 | 0.01 | 84 | 1013.8 |
| 20260505033531 | 56 | 252 | 0.9 | 7.0 | 0.00 | 0.00 | 0.01 | 84 | 1013.9 |
| 20260505033030 | 56 | 248 | 1.7 | 7.8 | 0.00 | 0.00 | 0.01 | 83 | 1013.8 |
| 20260505032755 | 56 | 242 | 1.7 | 8.7 | 0.00 | 0.00 | 0.01 | 83 | 1013.9 |
| 20260505032031 | 56 | 253 | 1.7 | 8.7 | 0.00 | 0.00 | 0.01 | 83 | 1013.8 |
| 20260505031759 | 56 | 265 | 1.7 | 8.7 | 0.00 | 0.00 | 0.01 | 83 | 1013.7 |
| 20260505031251 | 56 | 259 | 2.6 | 8.7 | 0.00 | 0.00 | 0.01 | 83 | 1013.7 |
| 20260505030529 | 56 | 252 | 1.7 | 7.0 | 0.00 | 0.00 | 0.01 | 83 | 1013.6 |
| 20260505030030 | 56 | 244 | 1.7 | 7.8 | 0.00 | 0.00 | 0.01 | 82 | 1013.7 |
| 20260505025531 | 56 | 232 | 1.7 | 7.8 | 0.00 | 0.00 | 0.01 | 80 | 1013.4 |
| 20260505025030 | 56 | 237 | 1.7 | 7.8 | 0.00 | 0.00 | 0.01 | 80 | 1013.3 |
| 20260505024531 | 56 | 240 | 3.5 | 10.4 | 0.00 | 0.00 | 0.01 | 80 | 1013.3 |
| 20260505024029 | 56 | 245 | 3.5 | 10.4 | 0.00 | 0.00 | 0.01 | 80 | 1013.4 |
| 20260505023528 | 56 | 230 | 4.3 | 10.4 | 0.00 | 0.00 | 0.01 | 79 | 1013.4 |
| 20260505023025 | 56 | 257 | 4.3 | 10.4 | 0.00 | 0.00 | 0.01 | 79 | 1013.4 |
| 20260505022526 | 56 | 254 | 3.5 | 10.4 | 0.00 | 0.00 | 0.01 | 78 | 1013.4 |
| 20260505022026 | 57 | 237 | 4.3 | 11.3 | 0.00 | 0.00 | 0.01 | 78 | 1013.7 |
| 20260505022015 | 57 | 246 | 4.3 | 11.3 | 0.00 | 0.00 | 0.01 | 77 | 1013.6 |
| 20260505021027 | 57 | 236 | 3.5 | 10.4 | 0.00 | 0.00 | 0.01 | 77 | 1013.6 |
| 20260505020526 | 57 | 209 | 3.5 | 10.4 | 0.00 | 0.00 | 0.01 | 77 | 1013.6 |
| 20260505020027 | 57 | 232 | 3.5 | 10.4 | 0.00 | 0.00 | 0.01 | 76 | 1013.4 |
| 20260505015528 | 57 | 259 | 3.5 | 10.4 | 0.00 | 0.00 | 0.01 | 75 | 1013.7 |
| 20260505015028 | 58 | 233 | 3.5 | 10.4 | 0.00 | 0.00 | 0.01 | 75 | 1013.8 |
| 20260505014529 | 58 | 209 | 3.5 | 9.6 | 0.00 | 0.00 | 0.01 | 74 | 1013.7 |
| 20260505014248 | 59 | 242 | 2.6 | 9.6 | 0.00 | 0.00 | 0.01 | 72 | 1013.8 |
| 20260505013517 | 59 | 219 | 3.5 | 12.2 | 0.00 | 0.00 | 0.01 | 71 | 1013.8 |
| 20260505013015 | 60 | 228 | 4.3 | 12.2 | 0.00 | 0.00 | 0.01 | 70 | 1013.9 |
| 20260505012517 | 60 | 233 | 3.5 | 9.6 | 0.00 | 0.00 | 0.01 | 68 | 1013.6 |
| 20260505012018 | 60 | 188 | 3.5 | 9.6 | 0.00 | 0.00 | 0.01 | 69 | 1013.7 |
| 20260505011520 | 60 | 219 | 3.5 | 10.4 | 0.00 | 0.00 | 0.01 | 68 | 1013.7 |
| 20260505011246 | 60 | 248 | 4.3 | 13.0 | 0.00 | 0.00 | 0.01 | 68 | 1013.7 |
| 20260505010512 | 60 | 240 | 5.2 | 13.0 | 0.00 | 0.00 | 0.01 | 68 | 1013.8 |
| 20260505010011 | 60 | 213 | 6.1 | 13.0 | 0.00 | 0.00 | 0.01 | 66 | 1013.8 |
| 20260505005511 | 60 | 259 | 6.1 | 13.0 | 0.00 | 0.00 | 0.01 | 65 | 1013.7 |
| 20260505005009 | 61 | 241 | 6.1 | 13.0 | 0.00 | 0.00 | 0.01 | 63 | 1013.7 |
| 20260505004511 | 61 | 246 | 5.2 | 13.0 | 0.00 | 0.00 | 0.01 | 66 | 1013.4 |
| 20260505004007 | 61 | 241 | 4.3 | 13.0 | 0.00 | 0.00 | 0.01 | 65 | 1013.6 |
| 20260505003506 | 61 | 236 | 5.2 | 13.0 | 0.00 | 0.00 | 0.01 | 65 | 1013.4 |
| 20260505003003 | 62 | 281 | 5.2 | 13.0 | 0.00 | 0.00 | 0.01 | 63 | 1013.7 |
| 20260505002505 | 62 | 254 | 5.2 | 13.0 | 0.00 | 0.00 | 0.01 | 63 | 1013.6 |
| 20260505002234 | 62 | 259 | 5.2 | 10.4 | 0.00 | 0.00 | 0.01 | 60 | 1013.6 |
| 20260505001503 | 62 | 269 | 5.2 | 11.3 | 0.00 | 0.00 | 0.01 | 61 | 1013.4 |
| 20260505001001 | 62 | 253 | 6.1 | 11.3 | 0.00 | 0.00 | 0.01 | 60 | 1013.7 |
| 20260505000502 | 62 | 257 | 5.2 | 11.3 | 0.00 | 0.00 | 0.01 | 59 | 1013.6 |
| 20260504235959 | 63 | 257 | 4.3 | 10.4 | 0.00 | 0.00 | 0.01 | 61 | 1013.6 |
| 20260504235653 | 62 | 196 | 6.1 | 13.9 | 0.00 | 0.00 | 0.01 | 64 | 1013.7 |
| 20260504235543 | 63 | 273 | 4.3 | 13.9 | 0.00 | 0.00 | 0.01 | 62 | 1013.7 |
| 20260504234718 | 62 | 234 | 7.0 | 13.9 | 0.00 | 0.00 | 0.01 | 64 | 1013.4 |
| 20260504234217 | 62 | 279 | 7.0 | 13.9 | 0.00 | 0.00 | 0.01 | 63 | 1013.3 |
| 20260504233937 | 62 | 259 | 6.1 | 13.0 | 0.00 | 0.00 | 0.01 | 62 | 1013.3 |
| 20260504232952 | 62 | 242 | 5.2 | 14.8 | 0.00 | 0.00 | 0.01 | 61 | 1013.3 |
| 20260504232452 | 62 | 243 | 6.1 | 14.8 | 0.00 | 0.00 | 0.01 | 62 | 1013.3 |
| 20260504231952 | 63 | 242 | 6.1 | 14.8 | 0.00 | 0.00 | 0.01 | 60 | 1013.3 |
| 20260504231723 | 64 | 259 | 5.2 | 14.8 | 0.00 | 0.00 | 0.01 | 57 | 1013.4 |
| 20260504230947 | 65 | 240 | 4.3 | 15.6 | 0.00 | 0.00 | 0.01 | 57 | 1013.3 |
| 20260504230443 | 65 | 236 | 5.2 | 15.6 | 0.00 | 0.00 | 0.01 | 57 | 1013.4 |
| 20260504230210 | 65 | 261 | 5.2 | 15.6 | 0.00 | 0.00 | 0.01 | 56 | 1013.4 |
| 20260504225437 | 65 | 234 | 5.2 | 15.6 | 0.00 | 0.00 | 0.01 | 56 | 1013.2 |
| 20260504224932 | 64 | 211 | 7.8 | 15.6 | 0.00 | 0.00 | 0.01 | 56 | 1013.1 |
| 20260504224432 | 64 | 230 | 7.0 | 15.6 | 0.00 | 0.00 | 0.01 | 56 | 1013.3 |
| 20260504223929 | 64 | 238 | 5.2 | 13.9 | 0.00 | 0.00 | 0.01 | 56 | 1013.4 |
| 20260504223429 | 64 | 278 | 5.2 | 13.9 | 0.00 | 0.00 | 0.01 | 53 | 1013.4 |
| 20260504222926 | 65 | 244 | 5.2 | 14.8 | 0.00 | 0.00 | 0.01 | 55 | 1013.4 |
| 20260504222648 | 65 | 268 | 5.2 | 14.8 | 0.00 | 0.00 | 0.01 | 55 | 1013.6 |
| 20260504221926 | 65 | 253 | 5.2 | 14.8 | 0.00 | 0.00 | 0.01 | 54 | 1013.8 |
| 20260504221428 | 65 | 240 | 5.2 | 14.8 | 0.00 | 0.00 | 0.01 | 54 | 1013.8 |
| 20260504220924 | 65 | 254 | 5.2 | 14.8 | 0.00 | 0.00 | 0.01 | 54 | 1013.9 |
| 20260504220425 | 65 | 275 | 5.2 | 14.8 | 0.00 | 0.00 | 0.01 | 52 | 1014.0 |
| 20260504215924 | 65 | 254 | 5.2 | 13.9 | 0.00 | 0.00 | 0.01 | 53 | 1014.1 |
| 20260504215425 | 65 | 200 | 4.3 | 13.9 | 0.00 | 0.00 | 0.01 | 53 | 1014.1 |
| 20260504215147 | 65 | 237 | 3.5 | 13.9 | 0.00 | 0.00 | 0.01 | 53 | 1014.1 |
| 20260504214423 | 65 | 233 | 4.3 | 13.9 | 0.00 | 0.00 | 0.01 | 53 | 1014.1 |
| 20260504213923 | 65 | 240 | 4.3 | 11.3 | 0.00 | 0.00 | 0.01 | 53 | 1014.3 |
| 20260504213646 | 65 | 261 | 3.5 | 11.3 | 0.00 | 0.00 | 0.01 | 54 | 1014.2 |
| 20260504212919 | 64 | 0.0 | 0.0 | 0.00 | 0.00 | 0.01 | 55 | 1014.2 | |
| 20260504212635 | 0 | 0.0 | 0.0 | 0.00 | 0.00 | 0.01 | 1014.3 | ||
| 20260504151147 | 55 | 239 | 0.0 | 4.3 | 0.00 | 0.01 | 0.01 | 83 | 1014.3 |
| 20260504150647 | 54 | 236 | 0.0 | 2.6 | 0.00 | 0.01 | 0.01 | 83 | 1014.2 |
| 20260504150144 | 54 | 236 | 0.0 | 4.3 | 0.00 | 0.01 | 0.01 | 84 | 1014.2 |
| 20260504140916 | 53 | 245 | 0.0 | 2.6 | 0.00 | 0.01 | 0.01 | 85 | 1013.9 |
| 20260504140415 | 52 | 213 | 0.0 | 2.6 | 0.00 | 0.01 | 0.01 | 84 | 1014.0 |
| 20260504130412 | 51 | 242 | 0.0 | 0.0 | 0.00 | 0.02 | 0.01 | 88 | 1013.6 |
| 20260504110359 | 52 | 236 | 0.9 | 7.0 | 0.00 | 0.03 | 0.01 | 89 | 1013.3 |
| 20260504100355 | 53 | 245 | 1.7 | 6.1 | 0.00 | 0.03 | 0.01 | 91 | 1013.0 |
| 20260504081843 | 53 | 259 | 0.0 | 4.3 | 0.01 | 0.03 | 0.01 | 90 | 1013.9 |
| 20260504081344 | 53 | 224 | 0.9 | 4.3 | 0.01 | 0.03 | 0.01 | 90 | 1014.3 |
| 20260504081336 | 53 | 229 | 1.7 | 4.3 | 0.01 | 0.03 | 0.01 | 90 | 1014.4 |
| 20260504080344 | 53 | 244 | 0.9 | 4.3 | 0.01 | 0.03 | 0.01 | 90 | 1014.4 |